TimeMST,TemperatureF,Dew PointF,Humidity,Sea Level PressureIn,VisibilityMPH,Wind Direction,Wind SpeedMPH,Gust SpeedMPH,PrecipitationIn,Events,Conditions,WindDirDegrees,DateUTC
12:53 AM,21.9,16.0,78,30.13,10.0,Calm,Calm,-,N/A,,Clear,0,2012-11-29 07:53:00
1:53 AM,19.9,16.0,85,30.12,10.0,WSW,5.8,-,N/A,,Clear,240,2012-11-29 08:53:00
2:53 AM,19.0,15.1,85,30.13,10.0,SW,4.6,-,N/A,,Clear,220,2012-11-29 09:53:00
3:53 AM,21.9,17.1,82,30.09,10.0,Calm,Calm,-,N/A,,Clear,0,2012-11-29 10:53:00
4:53 AM,26.1,19.9,78,30.10,10.0,Variable,4.6,-,N/A,,Clear,0,2012-11-29 11:53:00
5:53 AM,27.0,21.0,78,30.14,10.0,East,8.1,-,N/A,,Clear,80,2012-11-29 12:53:00
6:53 AM,25.0,19.9,81,30.18,10.0,Calm,Calm,-,N/A,,Mostly Cloudy,0,2012-11-29 13:53:00
7:53 AM,23.0,19.9,88,30.23,10.0,Calm,Calm,-,N/A,,Mostly Cloudy,0,2012-11-29 14:53:00
8:53 AM,32.0,25.0,75,30.17,10.0,Calm,Calm,-,N/A,,Clear,0,2012-11-29 15:53:00
9:53 AM,44.1,28.9,55,30.14,10.0,WSW,15.0,21.9,N/A,,Clear,240,2012-11-29 16:53:00
10:53 AM,46.0,28.9,51,30.13,10.0,WSW,12.7,26.5,N/A,,Clear,240,2012-11-29 17:53:00
11:53 AM,44.1,28.9,55,30.13,10.0,SW,13.8,25.3,N/A,,Clear,230,2012-11-29 18:53:00
12:53 PM,46.9,28.9,50,30.10,10.0,SW,13.8,-,N/A,,Clear,220,2012-11-29 19:53:00
1:53 PM,46.9,28.9,50,30.10,10.0,SSW,9.2,19.6,N/A,,Clear,210,2012-11-29 20:53:00
2:53 PM,48.0,28.9,48,30.09,10.0,WSW,15.0,-,N/A,,Clear,250,2012-11-29 21:53:00
3:53 PM,45.0,28.0,52,30.09,10.0,SW,13.8,-,N/A,,Clear,230,2012-11-29 22:53:00
4:53 PM,41.0,28.0,60,30.09,10.0,SW,8.1,-,N/A,,Clear,230,2012-11-29 23:53:00
5:53 PM,30.0,25.0,82,30.16,10.0,Calm,Calm,-,N/A,,Clear,0,2012-11-30 00:53:00
6:53 PM,27.0,24.1,89,30.19,10.0,Calm,Calm,-,N/A,,Clear,0,2012-11-30 01:53:00
7:53 PM,25.0,21.9,88,30.22,10.0,SW,3.5,-,N/A,,Scattered Clouds,220,2012-11-30 02:53:00
8:53 PM,25.0,23.0,92,30.16,10.0,Calm,Calm,-,N/A,,Clear,0,2012-11-30 03:53:00
9:53 PM,25.0,23.0,92,30.10,10.0,WSW,3.5,-,N/A,,Clear,250,2012-11-30 04:53:00
10:53 PM,24.1,21.9,91,30.11,10.0,SSW,3.5,-,N/A,,Mostly Cloudy,210,2012-11-30 05:53:00
11:53 PM,28.0,26.1,92,30.09,10.0,SSW,3.5,-,N/A,,Overcast,200,2012-11-30 06:53:00